FENGYUN 1C DEB, 30239

Orbit data source: Space-Track

FENGYUN 1C DEB, 30239 is space debris in LEO originally from a launch on Mon, 10 May 1999 UTC launched from the Taiyaun Space Center, China (TSC). Fengyun 1C debris stems from the Chinese weather satellite Fengyun-1C, which was intentionally destroyed by a Chinese anti-satellite missile in 2007. This event dramatically increased the amount of space debris, with thousands of trackable fragments posing hazards to satellites and human spaceflight. The Fengyun 1C debris cloud has become a focal point in discussions about space sustainability and the need for international regulations to prevent the creation of new debris.

Loading next visibility...
Identifier
30239, 1999-025WY
Orbit
LEO
Country
Flag of CNCN / PRC
Related business
Manufacturer
Unknown
Mission
Spacecraft
Bus & Motor
Unknown
Mass
Unknown
Launch date (UTC)
1999-05-10 (27 years ago)
Launch vehicle
Unknown
Launch site
Taiyaun Space Center, China (TSC)
Object type
Payload
Rocket body
Debris
Shape & HBR
Unknown shape, 0.1 m
Radar Cross Section
Small (<0.1 m²)

Expand to show TLE details & history
Last TLE update: 21 hours ago

TLE from 21 hours ago
0 FENGYUN 1C DEB
1 30239U 99025WY  25353.36403728  .00006544  00000-0  19428-1 0  9997
2 30239  99.5686 139.6476 1349959  18.6079 345.9749 11.38208236546100
Epoch: 2025-12-19T08:44Z
TLE epoch observation values (Epoch: 2025-12-19T08:44:12.820Z)
Latitude
-0.00006°
Longitude
-79.61206°
Altitude
889.992 km
Speed
7.873 km/s
True Right ascension
09h 18m 35s
True Declination
0° 00' 00"
Sunlit
Object was in full shadow at epoch
Visualization orbit readout
Latitude
Unknown
Longitude
Unknown
Altitude
Unknown
Speed
Unknown
Apparent Right ascension
Unknown
Apparent Declination
Unknown
Sunlit
N/A
Visualization observer readout
Local Sidereal Time
04:47:52
Azimuth
Unknown
Elevation
Unknown
Doppler factor
Unknown
Orbital elements
Apogee altitude
3,094.1 km
Perigee altitude
840.853 km
Semi-major axis
8,345.613 km
Eccentricity
0.135
Inclination
99.5686°
RAAN
139.6476°
Arg. of periapsis
18.6079°
True anomaly
341.50371°
Mean anomaly
345.9749°
Eccentric anomaly
343.81952°
Mean motion
2.84679 °/min
Orbital period
126.46 mins
BSTAR
0.019428
Loading maneuver chart data...
Computing Atmospheric mass density...

Documentation

Showing up to 5 results
|